Time,TemperatureF,DewpointF,PressureIn,WindDirection,WindDirectionDegrees,WindSpeedMPH,WindSpeedGustMPH,Humidity,HourlyPrecipIn,Conditions,Clouds,dailyrainin,SoftwareType,DateUTC
2014-01-13 00:22:00,31.0,26.0,29.56,WNW,288,11.0,-999.0,83,-99.99,,,-99.99,,2014-01-13 06:22:00,
2014-01-13 00:43:00,31.0,27.0,29.57,NW,305,13.0,-999.0,84,-99.99,,,-99.99,,2014-01-13 06:43:00,
2014-01-13 00:52:00,31.0,27.0,29.57,NW,316,12.0,-999.0,86,-99.99,,,-99.99,,2014-01-13 06:52:00,
2014-01-13 01:22:00,30.0,26.0,29.58,NW,323,11.0,-999.0,86,-99.99,,,-99.99,,2014-01-13 07:22:00,
2014-01-13 01:42:00,29.0,24.0,29.59,NW,316,10.0,-999.0,82,-99.99,,,-99.99,,2014-01-13 07:42:00,
2014-01-13 01:52:00,28.0,22.0,29.60,NW,307,10.0,-999.0,79,-99.99,,,-99.99,,2014-01-13 07:52:00,
2014-01-13 02:21:00,28.0,21.0,29.61,NNW,344,11.0,-999.0,74,-99.99,,,-99.99,,2014-01-13 08:21:00,
2014-01-13 02:42:00,27.0,20.0,29.62,NW,305,10.0,-999.0,76,-99.99,,,-99.99,,2014-01-13 08:42:00,
2014-01-13 02:52:00,27.0,21.0,29.63,NW,309,7.0,-999.0,77,-99.99,,,-99.99,,2014-01-13 08:52:00,
2014-01-13 03:22:00,26.0,21.0,29.65,North,360,9.0,-999.0,80,-99.99,,,-99.99,,2014-01-13 09:22:00,
2014-01-13 03:43:00,26.0,21.0,29.64,North,360,9.0,-999.0,82,-99.99,,,-99.99,,2014-01-13 09:43:00,
2014-01-13 03:53:00,27.0,22.0,29.65,NW,306,8.0,-999.0,81,-99.99,,,-99.99,,2014-01-13 09:53:00,
2014-01-13 04:13:00,26.0,21.0,29.65,North,360,8.0,-999.0,80,-99.99,,,-99.99,,2014-01-13 10:13:00,
2014-01-13 04:23:00,26.0,21.0,29.65,North,360,7.0,-999.0,80,-99.99,,,-99.99,,2014-01-13 10:23:00,
2014-01-13 04:33:00,26.0,21.0,29.65,North,360,7.0,-999.0,80,-99.99,,,-99.99,,2014-01-13 10:33:00,
2014-01-13 04:42:00,26.0,21.0,29.65,North,360,7.0,-999.0,80,-99.99,,,-99.99,,2014-01-13 10:42:00,
2014-01-13 04:53:00,26.0,21.0,29.65,North,360,7.0,-999.0,80,-99.99,,,-99.99,,2014-01-13 10:53:00,
2014-01-13 05:22:00,24.0,19.0,29.66,North,360,7.0,-999.0,82,-99.99,,,-99.99,,2014-01-13 11:22:00,
2014-01-13 05:42:00,23.0,19.0,29.67,North,360,6.0,-999.0,83,-99.99,,,-99.99,,2014-01-13 11:42:00,
2014-01-13 05:52:00,23.0,19.0,29.67,North,360,6.0,-999.0,83,-99.99,,,-99.99,,2014-01-13 11:52:00,
2014-01-13 06:02:00,23.0,19.0,29.67,North,360,6.0,-999.0,83,-99.99,,,-99.99,,2014-01-13 12:02:00,
2014-01-13 06:22:00,23.0,18.0,29.67,NW,313,9.0,-999.0,82,-99.99,,,-99.99,,2014-01-13 12:22:00,
2014-01-13 06:42:00,22.0,17.0,29.67,NW,318,7.0,-999.0,82,-99.99,,,-99.99,,2014-01-13 12:42:00,
2014-01-13 06:52:00,22.0,17.0,29.67,North,360,9.0,-999.0,82,-99.99,,,-99.99,,2014-01-13 12:52:00,
2014-01-13 07:12:00,21.0,16.0,29.68,North,360,9.0,-999.0,82,-99.99,,,-99.99,,2014-01-13 13:12:00,
2014-01-13 07:21:00,21.0,16.0,29.68,North,360,9.0,-999.0,82,-99.99,,,-99.99,,2014-01-13 13:21:00,
2014-01-13 07:42:00,20.0,16.0,29.68,NW,306,6.0,-999.0,83,-99.99,,,-99.99,,2014-01-13 13:42:00,
2014-01-13 07:52:00,20.0,16.0,29.68,NW,306,6.0,-999.0,83,-99.99,,,-99.99,,2014-01-13 13:52:00,
2014-01-13 08:02:00,20.0,16.0,29.68,NW,306,6.0,-999.0,83,-99.99,,,-99.99,,2014-01-13 14:02:00,
2014-01-13 08:22:00,17.0,13.0,29.69,North,360,1.0,-999.0,85,-99.99,,,-99.99,,2014-01-13 14:22:00,
2014-01-13 08:52:00,17.0,14.0,29.70,North,360,4.0,-999.0,86,-99.99,,,-99.99,,2014-01-13 14:52:00,
2014-01-13 09:22:00,18.0,15.0,29.70,North,360,2.0,-999.0,86,-99.99,,,-99.99,,2014-01-13 15:22:00,
2014-01-13 09:44:00,19.0,15.0,29.70,North,360,1.0,-999.0,84,-99.99,,,-99.99,,2014-01-13 15:44:00,
2014-01-13 09:53:00,19.0,15.0,29.70,North,360,4.0,-999.0,83,-99.99,,,-99.99,,2014-01-13 15:53:00,
2014-01-13 10:23:00,20.0,15.0,29.70,North,360,3.0,-999.0,82,-99.99,,,-99.99,,2014-01-13 16:23:00,
2014-01-13 10:43:00,20.0,15.0,29.70,WNW,291,4.0,-999.0,81,-99.99,,,-99.99,,2014-01-13 16:43:00,
2014-01-13 10:53:00,20.0,15.0,29.70,WNW,291,4.0,-999.0,81,-99.99,,,-99.99,,2014-01-13 16:53:00,
2014-01-13 11:12:00,22.0,16.0,29.70,North,360,4.0,-999.0,79,-99.99,,,-99.99,,2014-01-13 17:12:00,
2014-01-13 11:22:00,22.0,16.0,29.70,North,360,4.0,-999.0,79,-99.99,,,-99.99,,2014-01-13 17:22:00,
2014-01-13 11:32:00,22.0,16.0,29.70,North,360,4.0,-999.0,79,-99.99,,,-99.99,,2014-01-13 17:32:00,
2014-01-13 11:52:00,22.0,16.0,29.70,North,360,5.0,-999.0,79,-99.99,,,-99.99,,2014-01-13 17:52:00,
2014-01-13 12:42:00,24.0,18.0,29.68,West,277,5.0,-999.0,79,-99.99,,,-99.99,,2014-01-13 18:42:00,
2014-01-13 12:53:00,24.0,18.0,29.68,West,277,5.0,-999.0,79,-99.99,,,-99.99,,2014-01-13 18:53:00,
2014-01-13 13:02:00,24.0,18.0,29.68,West,277,5.0,-999.0,79,-99.99,,,-99.99,,2014-01-13 19:02:00,
2014-01-13 13:42:00,25.0,19.0,29.66,NW,318,5.0,-999.0,77,-99.99,,,-99.99,,2014-01-13 19:42:00,
2014-01-13 13:52:00,25.0,19.0,29.66,NW,312,7.0,-999.0,77,-99.99,,,-99.99,,2014-01-13 19:52:00,
2014-01-13 14:01:00,25.0,19.0,29.66,NW,312,7.0,-999.0,77,-99.99,,,-99.99,,2014-01-13 20:01:00,
2014-01-13 14:11:00,25.0,19.0,29.66,NW,312,7.0,-999.0,77,-99.99,,,-99.99,,2014-01-13 20:11:00,
2014-01-13 14:22:00,25.0,19.0,29.66,NW,312,7.0,-999.0,77,-99.99,,,-99.99,,2014-01-13 20:22:00,
2014-01-13 14:52:00,25.0,19.0,29.65,NW,306,3.0,-999.0,79,-99.99,,,-99.99,,2014-01-13 20:52:00,
2014-01-13 15:22:00,26.0,20.0,29.65,WNW,288,3.0,-999.0,78,-99.99,,,-99.99,,2014-01-13 21:22:00,
2014-01-13 15:43:00,27.0,21.0,29.64,West,274,4.0,-999.0,77,-99.99,,,-99.99,,2014-01-13 21:43:00,
2014-01-13 15:53:00,26.0,20.0,29.63,West,274,3.0,-999.0,78,-99.99,,,-99.99,,2014-01-13 21:53:00,
2014-01-13 16:23:00,27.0,21.0,29.63,West,273,0.0,-999.0,78,-99.99,,,-99.99,,2014-01-13 22:23:00,
2014-01-13 16:42:00,27.0,21.0,29.62,West,268,1.0,-999.0,79,-99.99,,,-99.99,,2014-01-13 22:42:00,
2014-01-13 16:53:00,27.0,21.0,29.62,South,169,5.0,-999.0,79,-99.99,,,-99.99,,2014-01-13 22:53:00,
2014-01-13 17:22:00,27.0,22.0,29.61,South,169,5.0,-999.0,82,-99.99,,,-99.99,,2014-01-13 23:22:00,
2014-01-13 17:52:00,27.0,23.0,29.61,SSE,168,3.0,-999.0,83,-99.99,,,-99.99,,2014-01-13 23:52:00,
2014-01-13 18:11:00,27.0,23.0,29.60,South,169,2.0,-999.0,84,-99.99,,,-99.99,,2014-01-14 00:11:00,
2014-01-13 18:21:00,27.0,23.0,29.60,SSE,168,5.0,-999.0,85,-99.99,,,-99.99,,2014-01-14 00:21:00,
2014-01-13 18:42:00,27.0,23.0,29.59,SSE,163,5.0,-999.0,86,-99.99,,,-99.99,,2014-01-14 00:42:00,
2014-01-13 18:52:00,27.0,24.0,29.59,SSE,148,6.0,-999.0,87,-99.99,,,-99.99,,2014-01-14 00:52:00,
2014-01-13 19:22:00,26.0,23.0,29.59,North,360,4.0,-999.0,88,-99.99,,,-99.99,,2014-01-14 01:22:00,
2014-01-13 19:42:00,26.0,23.0,29.57,North,360,7.0,-999.0,88,-99.99,,,-99.99,,2014-01-14 01:42:00,
2014-01-13 19:52:00,25.0,22.0,29.55,North,360,7.0,-999.0,89,-99.99,,,-99.99,,2014-01-14 01:52:00,
2014-01-13 20:21:00,24.0,22.0,29.54,North,360,6.0,-999.0,90,-99.99,,,-99.99,,2014-01-14 02:21:00,
2014-01-13 20:52:00,24.0,22.0,29.54,North,360,5.0,-999.0,90,-99.99,,,-99.99,,2014-01-14 02:52:00,
2014-01-13 21:22:00,24.0,22.0,29.52,North,360,6.0,-999.0,91,-99.99,,,-99.99,,2014-01-14 03:22:00,
2014-01-13 21:43:00,25.0,23.0,29.52,North,360,5.0,-999.0,91,-99.99,,,-99.99,,2014-01-14 03:43:00,
2014-01-13 21:53:00,25.0,23.0,29.52,North,360,5.0,-999.0,91,-99.99,,,-99.99,,2014-01-14 03:53:00,
2014-01-13 22:22:00,25.0,22.0,29.51,North,360,5.0,-999.0,90,-99.99,,,-99.99,,2014-01-14 04:22:00,
2014-01-13 22:43:00,26.0,23.0,29.51,North,360,4.0,-999.0,90,-99.99,,,-99.99,,2014-01-14 04:43:00,
2014-01-13 22:53:00,26.0,24.0,29.52,North,360,4.0,-999.0,91,-99.99,,,-99.99,,2014-01-14 04:53:00,
2014-01-13 23:22:00,26.0,24.0,29.51,North,360,4.0,-999.0,91,-99.99,,,-99.99,,2014-01-14 05:22:00,
2014-01-13 23:53:00,26.0,24.0,29.52,North,360,1.0,-999.0,92,-99.99,,,-99.99,,2014-01-14 05:53:00,